Home > Time Zones > World Clock > Weather > Cuba > Havana > Past weeks

Flag for Cuba Weather past 2 weeks in Havana, Cuba

Now
77 °F

Partly sunny.


Feels Like: 79 °F
Forecast: N/A
Wind: 17 mph from Northeast

Location: Aeropuerto Jose Marti - Rancho-Boyeros - Habana

Current Time: Mar 29, 2015 at 5:07:14 PM

Latest Report: Mar 29, 2015 at 3:55 PM


Visibility: N/A

Pressure: 30.18 "Hg

Humidity: 47%

Dew point: 55 °F

Location of HavanaLocation

Historic Weather in Havana — Graph

°F

Havana temperature yesterday

Maximum temperature yesterday: 79 °F (at 1:55 PM)
Minimum temperature yesterday: 68 °F (at 8:55 PM)
Average temperature yesterday: 73 °F

Past Weeks' High & Low Weather Summary

 TemperatureHumidityPressure
High90 °F (Mar 26, 1:55 PM)100% (Mar 16, 2:55 AM)30.27 "Hg (Mar 16, 2:55 AM)
Low45 °F (Mar 16, 2:55 AM)27% (Mar 23, 1:55 PM)29.92 "Hg (Mar 27, 2:55 PM)
Average75 °F68%30.06 "Hg
* Reported Mar 14 3:55 PM — Mar 29 3:55 PM, Havana, Weather by CustomWeather, © 2015

Note: Actual official high and low records may vary slightly from our data, if they occured in-between our weather recording intervals... More about our weather records

Advertising

Havana weather history for previous 24 hours

 ConditionsComfort  
Time TempWeatherWind HumidityBarometerVisibility
3:55 PM
Sun, Mar 29
77 °FPartly sunny.17 mph47%30.18 "HgN/A
2:55 PM77 °FPartly sunny.18 mph47%30.21 "HgN/A
1:55 PM79 °FPartly sunny.16 mph39%30.24 "HgN/A
12:55 PM77 °FBroken clouds.17 mph44%30.24 "HgN/A
11:55 AM75 °FPartly sunny.17 mph50%30.27 "HgN/A
10:55 AM77 °FBroken clouds.16 mph47%30.27 "HgN/A
9:55 AM75 °FPartly sunny.17 mph50%30.24 "HgN/A
8:55 AM72 °FPartly sunny.9 mph57%30.21 "Hg6 mi
7:55 AM66 °FPassing clouds.7 mph68%30.21 "Hg6 mi
6:55 AM68 °FPassing clouds.8 mph64%30.18 "Hg6 mi
5:55 AM68 °FPassing clouds.9 mph64%30.15 "Hg6 mi
4:55 AM68 °FPassing clouds.8 mph64%30.15 "Hg6 mi
3:55 AM68 °FPassing clouds.12 mph60%30.18 "Hg6 mi
2:55 AM70 °FPassing clouds.12 mph53%30.18 "Hg6 mi
1:55 AM70 °FPartly cloudy.10 mph57%30.21 "Hg6 mi
12:55 AM70 °FPassing clouds.13 mph57%30.21 "Hg6 mi
11:55 PM
Sat, Mar 28
70 °FPassing clouds.12 mph57%30.21 "Hg6 mi
10:55 PM70 °FPassing clouds.13 mph57%30.21 "Hg6 mi
9:55 PM70 °FPassing clouds.10 mph57%30.21 "Hg6 mi
8:55 PM68 °FPassing clouds.10 mph64%30.15 "Hg6 mi
7:55 PM70 °FMore clouds than sun.13 mph60%30.15 "Hg6 mi
6:55 PM72 °FScattered clouds.15 mph53%30.12 "Hg6 mi
5:55 PM72 °FScattered clouds.17 mph53%30.12 "Hg6 mi
Weather by CustomWeather, © 2015

See weather overviewHow to use our weather pages